Location: Gollag?dem
(17.0207°N, 80.7261°E)
Time: 16:14:36
(UTC+00:00)

BREEZE-M DEB (TANK) - Pass Details

Date: 03 August 2024
Orbit: 322 x 16353 km, 49.5° (Epoch: 12 September)

Event Time Altitude Azimuth Distance (km) Brightness Sun altitude
Exits shadow 22:15:21 49° 246° (WSW) 1,943 4.5 -27.6°
Maximum altitude 22:17:37 67° 306° (NW) 1,299 3.9 -27.1°
Drops below altitude 10° 22:21:52 10° 30° (NNE) 2,081 6.0 -26.2°
Sets 22:23:15 0° 34° (NNE) 2,679 6.8 -25.9°
